Temp
66 66 65 65 64 64 65 66 66 66 65 65 62 63 62 60 57 52 52 54 55 61 65 61 63 66 62 59 58 58 57 59 59 56 54 53 52 56 56 56 59 60 58 58 58 57 57 56 56 56 57 59 60 60 60 60 59 59 59 59 59 59 57 56 56 56 57 58 59 58 57 57 58 58
66 66 65 65 64 65 65 65 66 66 66 64 64 63 63 61 59 56 54 53 58 58 62 64 61 61 61 59 57 57 57 60 60 56 54 53 52 55 56 55 55 56 56 56 54 54 55 56 58 59 59 59 60 60 59 59 58 58 59 59 58 57 56 56 56 57 57 57 58 58 57 58 58 58
66 65 65 65 65 65 65 65 65 65 65 65 63 62 63 61 61 59 57 54 55 59 59 59 65 61 59 61 59 59 58 60 59 56 53 54 55 57 55 55 54 54 54 54 54 55 55 54 55 56 57 58 59 59 59 59 58 58 57 56 56 56 55 55 56 57 58 59 59 60 59 59 59 59
67 66 65 65 65 65 65 65 65 64 64 65 62 63 62 61 60 58 56 56 54 56 56 59 61 62 59 59 59 58 59 59 60 55 55 56 57 55 54 55 55 54 53 53 53 54 54 54 54 55 55 56 58 59 59 57 56 56 55 54 54 53 54 54 55 57 59 60 60 60 59 59 59 58
67 66 66 65 65 65 65 64 64 64 64 63 62 64 61 60 60 61 57 55 53 57 54 55 57 59 60 59 60 59 57 56 57 59 56 54 53 53 53 54 55 54 53 52 52 52 51 52 54 55 56 56 57 58 55 53 54 54 54 53 53 53 53 54 54 55 56 58 59 59 58 58 58 57
68 66 66 66 65 65 65 64 64 64 62 63 62 61 62 59 60 60 61 55 53 53 54 54 58 57 60 59 59 58 55 55 54 56 57 57 56 55 54 53 54 54 53 52 52 52 51 51 51 52 52 52 51 52 51 51 51 52 52 50 49 50 50 52 53 54 56 57 57 57 57 57 56 56
67 65 65 65 65 66 65 64 64 63 63 63 63 62 61 61 60 59 60 56 53 54 53 53 58 58 59 56 59 59 59 57 58 57 57 57 57 58 56 55 55 53 53 52 52 52 52 51 51 50 50 50 50 50 50 50 50 50 50 49 49 50 51 51 52 54 56 56 56 56 56 56 56 56
67 66 64 63 64 64 64 63 61 61 62 61 61 61 60 61 59 58 57 59 51 52 54 53 56 56 56 55 57 61 59 56 55 57 58 58 56 57 58 56 55 55 52 52 53 52 52 52 51 51 50 50 50 50 51 51 50 50 50 50 50 50 50 51 51 51 53 53 53 53 54 54 55 57
67 66 65 64 63 62 63 61 61 61 60 61 61 60 60 60 59 58 58 58 55 55 54 54 54 54 55 55 56 57 56 54 55 56 56 58 57 56 58 58 59 56 53 52 53 53 52 52 51 51 50 50 51 51 51 51 51 51 51 51 50 50 50 51 52 52 52 52 52 53 54 54 55 57
67 66 66 65 64 63 62 60 61 60 60 60 59 59 59 59 57 56 54 55 55 56 54 55 54 52 56 56 54 57 57 55 55 54 55 55 55 54 54 55 58 57 56 53 53 53 52 51 51 51 51 51 51 50 50 50 51 51 51 51 50 50 50 50 50 51 50 51 52 52 53 52 53 55
67 66 65 65 64 65 63 61 60 60 58 59 58 58 58 56 57 54 55 55 55 55 54 53 52 53 53 53 53 56 55 57 54 54 52 53 52 54 52 53 54 55 54 53 53 53 53 54 54 52 51 51 51 51 51 52 52 51 51 50 49 48 48 48 49 50 51 51 51 50 50 49 50 52
67 65 65 64 64 64 63 62 61 60 59 58 58 57 58 56 56 55 53 54 54 53 53 52 50 50 52 53 52 53 51 52 53 53 51 51 49 53 51 51 53 52 54 53 54 53 52 52 53 52 51 52 52 53 53 54 54 53 52 50 50 50 49 49 49 50 51 51 51 50 50 50 50 49
66 65 64 64 64 63 64 62 61 61 61 59 59 56 56 55 55 54 54 54 53 52 52 52 51 51 51 51 52 50 50 48 50 49 51 49 48 49 51 51 50 53 54 52 51 52 54 52 52 52 54 55 56 55 54 54 55 54 51 50 50 50 50 50 50 50 51 52 51 50 49 49 48 47
65 64 63 64 65 63 62 59 57 55 57 60 62 58 55 56 55 54 54 53 53 53 51 50 50 50 50 50 51 50 47 46 49 50 50 50 50 50 48 46 48 53 50 52 51 49 51 54 53 52 53 55 55 53 52 55 55 53 50 51 50 50 50 51 51 51 50 50 50 49 48 47 46 46
63 62 63 62 63 62 61 59 54 53 54 54 55 56 57 59 58 55 54 53 52 52 52 50 51 51 50 51 52 53 53 49 52 50 50 48 47 48 48 47 44 49 51 48 48 48 49 52 53 53 53 54 53 52 54 53 52 52 51 50 50 51 52 51 51 50 50 50 48 47 46 45 45 46
63 62 62 62 62 61 61 60 57 55 53 52 51 50 51 52 54 55 57 55 51 51 53 51 52 51 52 52 52 52 52 50 49 51 50 48 47 45 46 41 45 46 52 50 48 50 51 52 51 51 53 53 51 54 54 52 52 51 50 50 51 51 51 51 50 50 50 49 47 46 45 45 45 45
63 62 61 61 60 62 61 59 56 55 53 51 50 50 50 48 47 46 48 52 58 54 54 54 51 53 53 52 52 54 54 52 52 49 50 48 47 46 46 43 43 48 49 50 48 46 52 51 50 49 50 50 50 53 53 52 51 51 50 51 51 51 51 50 50 50 49 48 47 45 45 46 46 46
64 62 61 59 58 57 58 57 55 54 53 51 52 52 52 52 51 46 46 46 49 53 56 55 56 54 54 55 53 54 54 54 52 50 49 47 46 45 46 46 47 49 53 50 46 44 49 49 49 46 47 49 50 50 51 50 51 51 50 51 50 50 50 50 49 49 48 46 44 44 45 45 45 45
64 63 62 60 59 57 57 56 55 54 53 53 52 52 51 51 51 51 50 50 52 53 52 53 53 50 50 53 54 54 54 56 54 53 50 48 48 49 48 46 46 49 52 49 48 46 44 43 48 47 49 51 52 52 50 50 50 51 50 50 50 50 50 49 49 48 47 45 44 44 44 45 44 45
64 63 61 60 58 57 57 54 50 53 54 53 52 51 50 49 49 50 52 48 50 53 52 50 50 49 50 52 54 54 55 53 53 54 51 49 48 47 47 46 44 46 48 48 47 43 42 43 50 47 47 46 50 52 51 50 50 50 50 50 50 50 49 49 49 48 46 44 44 45 45 44 44 44
63 63 61 60 58 57 57 51 47 48 53 54 53 52 50 50 50 49 45 43 43 44 44 44 43 41 42 44 46 47 49 52 51 51 49 48 45 46 45 43 43 42 43 46 46 45 45 44 48 48 46 48 49 50 51 49 49 50 50 50 50 50 49 49 49 48 47 43 44 45 45 44 44 46
64 64 61 62 59 58 57 47 46 47 53 55 53 52 51 49 49 46 47 48 45 42 42 42 42 43 43 44 45 46 46 47 52 52 49 47 44 44 43 40 40 42 44 46 48 47 45 44 42 47 45 44 41 46 47 46 49 50 50 50 50 50 50 49 48 49 47 44 45 45 45 44 45 45
63 63 60 59 59 59 54 45 46 47 54 56 54 53 52 50 49 48 48 48 46 46 46 44 46 45 46 48 50 49 46 48 51 51 50 45 46 44 41 41 42 43 42 45 48 48 43 46 42 46 43 43 44 42 45 47 50 51 51 50 53 51 50 49 48 49 47 44 45 45 45 45 44 44
63 63 61 57 50 50 46 45 45 46 50 55 54 53 52 51 50 49 50 49 49 48 49 47 47 47 45 47 48 46 45 49 52 48 49 48 47 46 45 44 42 42 39 44 47 49 42 43 45 44 45 43 38 40 41 48 50 50 48 50 49 51 50 49 49 50 47 44 45 45 45 45 44 43
62 62 61 59 51 47 45 45 45 46 48 51 55 54 53 54 53 50 51 51 52 49 48 47 46 47 46 47 47 47 46 46 46 46 47 47 48 48 45 42 44 43 43 45 47 50 45 44 45 43 43 42 42 45 42 43 48 47 48 48 49 51 49 49 48 51 49 43 45 44 44 44 44 43
63 63 61 59 50 46 45 45 45 46 47 48 54 54 49 47 45 52 53 51 50 48 48 47 46 47 46 47 48 47 48 47 47 46 46 47 47 48 49 48 46 43 46 50 46 49 48 47 47 45 44 45 41 41 43 44 47 46 47 49 50 49 46 47 47 49 49 41 40 43 43 44 44 44
63 63 62 58 49 46 45 45 45 46 46 48 52 47 45 45 45 49 51 50 50 48 48 47 47 47 48 48 47 47 48 47 47 47 47 47 48 48 49 49 50 50 52 51 49 49 47 44 43 45 45 43 44 39 40 43 47 44 49 48 48 48 47 45 47 48 48 42 42 44 43 43 43 43
64 62 61 55 46 46 45 45 45 45 46 51 46 44 45 44 45 51 50 49 50 48 47 47 47 48 48 48 48 48 49 49 49 50 49 49 49 49 49 49 50 50 51 51 52 50 49 49 49 45 45 44 44 41 43 42 41 41 44 46 46 47 46 46 46 47 48 42 41 41 40 40 40 41
63 56 52 48 45 45 45 44 44 44 46 46 44 45 44 48 50 50 50 50 50 48 47 48 48 48 49 50 51 51 51 51 50 48 50 49 50 50 49 48 48 50 52 53 52 52 50 49 49 48 45 43 44 44 42 42 43 41 42 42 42 46 44 47 47 45 47 43 40 39 38 37 38 39
52 49 47 46 45 44 45 47 49 49 49 44 44 44 46 50 51 50 50 50 50 49 49 48 48 50 49 49 51 51 51 50 49 49 49 48 48 49 48 47 48 50 51 52 53 52 51 50 49 48 47 47 44 46 44 44 40 40 42 42 43 43 41 46 45 45 45 44 40 40 39 39 39 39
54 49 49 48 45 46 45 47 47 48 44 44 47 48 50 51 51 51 51 51 51 50 50 49 49 49 50 52 51 48 48 49 50 50 49 49 49 48 47 47 48 49 51 52 52 53 52 52 50 47 47 47 47 43 42 42 42 41 40 41 41 44 44 44 46 44 44 44 42 39 40 40 39 40
52 51 45 44 46 45 46 48 49 48 46 47 46 47 49 50 50 51 51 50 50 50 51 50 49 47 49 48 50 48 47 49 50 50 49 49 49 48 48 45 46 46 48 49 50 50 48 51 51 50 50 48 46 42 40 41 46 44 40 41 41 42 42 43 43 44 44 42 42 39 36 38 39 38
49 48 48 47 46 47 47 47 49 48 47 47 47 48 49 49 49 49 49 49 49 49 49 50 50 50 48 49 47 48 47 48 49 49 50 49 50 48 47 48 44 44 46 47 47 49 50 49 49 50 48 44 43 39 36 43 42 38 41 41 40 42 41 42 42 42 43 43 43 41 38 39 40 39
50 49 48 48 47 48 48 48 47 47 47 46 45 47 46 48 49 49 50 50 49 48 48 50 48 49 48 49 48 47 48 47 48 48 49 49 49 47 45 47 46 46 44 46 44 46 47 45 45 47 46 45 45 45 44 40 43 40 41 41 41 43 42 43 42 40 41 42 40 40 39 39 40 39
48 46 45 45 47 47 49 47 47 44 42 43 44 45 47 49 48 46 50 50 46 44 46 45 47 47 47 48 48 48 46 47 48 46 46 49 48 48 47 45 47 45 43 43 44 44 44 47 46 48 44 44 48 45 44 44 46 43 38 38 39 41 44 41 40 41 40 42 39 38 38 37 39 41
46 47 47 46 48 49 47 44 43 43 44 42 43 44 45 46 47 47 49 49 49 47 47 43 41 43 46 48 46 46 44 42 47 48 47 48 47 48 46 47 47 47 43 45 45 44 43 46 40 40 40 38 31 32 37 47 49 46 44 38 34 39 40 39 38 38 41 40 39 37 35 35 38 40
46 48 50 49 49 48 46 46 46 45 44 44 43 47 47 45 47 49 50 47 49 45 48 45 42 40 40 41 40 39 38 39 41 43 45 47 47 46 45 40 43 45 43 46 44 44 45 47 41 41 38 32 32 39 34 36 39 44 46 43 38 37 40 38 37 40 37 38 39 39 38 37 38 40
45 48 50 50 50 49 48 48 46 45 46 45 43 45 45 48 50 50 50 49 47 42 44 45 42 40 42 39 41 41 41 40 41 38 38 42 42 40 42 40 40 41 41 41 43 43 44 41 40 39 37 32 35 33 33 32 33 42 43 42 43 36 37 37 37 37 38 37 39 38 37 37 37 39
51 49 49 50 49 49 49 48 46 45 45 44 44 45 48 49 50 50 49 49 50 47 46 45 44 43 43 45 42 41 39 38 40 38 39 42 43 40 40 39 40 39 44 43 39 40 42 43 43 40 40 35 33 37 36 35 37 31 34 42 44 41 35 38 37 34 34 35 38 37 35 35 39 38
49 50 50 50 49 49 48 48 47 46 45 44 45 46 46 48 50 50 49 47 48 49 48 45 44 44 45 46 41 41 41 44 41 37 40 39 39 42 40 35 39 37 41 40 41 39 40 43 43 43 39 40 38 38 34 35 34 33 37 42 44 46 39 36 40 41 35 34 34 33 35 33 35 35
49 49 49 49 49 48 47 46 46 46 46 46 46 44 46 47 49 51 50 48 45 45 45 44 44 44 43 45 45 43 41 39 39 39 41 39 38 38 37 36 37 35 39 36 35 37 39 42 43 39 42 39 38 39 33 34 35 34 36 33 35 42 43 43 40 35 40 37 37 35 34 34 33 31
51 51 51 51 49 48 47 47 46 46 45 46 46 47 50 50 50 46 47 45 49 44 44 42 42 43 43 44 43 42 43 41 38 37 37 38 38 38 38 38 39 35 38 38 38 35 40 43 41 41 45 40 43 45 41 35 35 32 31 33 32 38 41 41 41 39 35 36 38 36 33 32 28 31
50 53 51 50 51 50 50 48 47 46 46 47 47 48 49 49 50 48 46 45 46 44 43 42 41 43 43 43 43 43 43 40 39 39 38 38 39 39 38 36 38 37 38 38 35 37 37 41 44 43 39 40 39 40 42 34 31 31 34 33 34 32 34 40 38 39 39 39 41 40 39 38 34 34
51 52 52 51 51 52 52 50 48 47 47 48 47 50 50 48 47 47 46 46 46 45 43 43 42 42 42 43 43 42 43 42 39 40 39 39 38 39 38 37 36 37 36 36 36 36 36 36 38 38 42 41 36 38 37 33 34 33 33 35 33 32 40 33 30 36 38 39 40 39 39 40 42 42
51 52 52 51 50 51 49 49 48 48 48 47 48 48 47 47 46 45 47 47 46 45 43 44 43 43 42 43 43 42 42 41 41 40 40 39 38 37 38 38 36 36 36 34 37 37 34 35 36 36 40 35 34 39 36 37 40 33 35 35 39 33 34 38 42 36 34 34 36 38 40 40 39 39
MSLP
1017.19 1017.39 1017.59 1017.75 1017.87 1017.91 1017.87 1017.95 1018.07 1018.15 1018.23 1018.35 1018.51 1018.75 1019.27 1019.71 1020.43 1021.03 1021.19 1021.07 1020.91 1020.31 1019.99 1020.31 1020.15 1019.91 1020.23 1020.63 1020.91 1021.03 1021.15 1021.27 1021.51 1021.83 1022.03 1022.15 1022.23 1022.27 1022.39 1022.51 1022.63 1022.67 1022.75 1022.79 1022.83 1022.83 1022.87 1022.87 1022.87 1022.91 1022.87 1022.83 1022.75 1022.67 1022.63 1022.55 1022.47 1022.35 1022.19 1022.07 1021.95 1021.83 1021.71 1021.63 1021.47 1021.27 1021.11 1020.91 1020.67 1020.51 1020.35 1020.11 1019.87 1019.59
1016.91 1017.11 1017.35 1017.51 1017.67 1017.59 1017.67 1017.71 1017.75 1017.87 1017.95 1018.11 1018.23 1018.47 1018.63 1018.95 1019.59 1020.07 1020.63 1020.55 1020.15 1019.87 1019.55 1019.51 1019.87 1019.99 1020.23 1020.47 1020.87 1020.87 1020.95 1021.07 1021.27 1021.55 1021.71 1021.87 1021.99 1022.07 1022.23 1022.35 1022.51 1022.55 1022.59 1022.63 1022.67 1022.67 1022.71 1022.71 1022.71 1022.67 1022.67 1022.63 1022.59 1022.55 1022.47 1022.39 1022.27 1022.11 1021.95 1021.83 1021.71 1021.63 1021.55 1021.39 1021.19 1020.99 1020.79 1020.59 1020.35 1020.15 1019.95 1019.71 1019.43 1019.19
1016.63 1016.87 1017.11 1017.19 1017.31 1017.27 1017.35 1017.39 1017.47 1017.55 1017.67 1017.79 1017.95 1018.15 1018.35 1018.67 1018.87 1019.39 1019.79 1020.31 1019.47 1019.39 1019.51 1019.31 1019.15 1019.63 1020.11 1020.27 1020.55 1020.79 1020.87 1020.95 1021.11 1021.31 1021.47 1021.63 1021.75 1021.95 1022.11 1022.19 1022.31 1022.39 1022.43 1022.47 1022.51 1022.51 1022.51 1022.55 1022.55 1022.51 1022.47 1022.47 1022.43 1022.35 1022.23 1022.11 1021.99 1021.87 1021.75 1021.59 1021.51 1021.39 1021.31 1021.11 1020.91 1020.67 1020.43 1020.19 1019.95 1019.71 1019.51 1019.27 1018.99 1018.71
1016.23 1016.47 1016.71 1016.79 1016.87 1016.91 1016.99 1017.11 1017.19 1017.35 1017.43 1017.51 1017.71 1017.87 1018.15 1018.39 1018.47 1018.63 1019.07 1019.43 1019.31 1019.03 1018.87 1018.83 1019.11 1019.35 1019.91 1020.19 1020.43 1020.63 1020.83 1020.91 1020.95 1021.11 1021.27 1021.43 1021.63 1021.87 1021.99 1022.03 1022.07 1022.15 1022.23 1022.31 1022.39 1022.35 1022.31 1022.35 1022.35 1022.35 1022.27 1022.23 1022.15 1022.07 1021.91 1021.83 1021.71 1021.63 1021.47 1021.31 1021.15 1021.07 1020.99 1020.79 1020.55 1020.31 1020.07 1019.79 1019.55 1019.31 1019.07 1018.79 1018.51 1018.27
1015.83 1015.99 1016.23 1016.35 1016.39 1016.43 1016.71 1016.87 1017.03 1017.11 1017.19 1017.35 1017.47 1017.59 1017.87 1018.11 1018.19 1018.31 1018.63 1019.03 1019.23 1019.15 1019.03 1018.91 1019.27 1019.63 1019.79 1020.31 1020.19 1020.43 1020.67 1020.87 1020.99 1021.03 1021.15 1021.31 1021.51 1021.67 1021.83 1021.87 1021.87 1021.91 1022.03 1022.15 1022.19 1022.19 1022.15 1022.15 1022.15 1022.11 1022.03 1021.95 1021.87 1021.75 1021.63 1021.55 1021.47 1021.31 1021.15 1020.99 1020.83 1020.75 1020.67 1020.47 1020.23 1020.03 1019.79 1019.51 1019.19 1018.91 1018.63 1018.31 1018.07 1017.83
1015.39 1015.59 1015.83 1015.99 1016.07 1016.11 1016.35 1016.55 1016.75 1016.83 1017.03 1017.15 1017.35 1017.47 1017.55 1017.75 1017.87 1017.83 1018.19 1018.67 1019.03 1019.39 1019.27 1019.31 1019.43 1019.75 1019.63 1019.95 1020.11 1020.15 1020.51 1020.67 1020.91 1021.03 1021.11 1021.23 1021.31 1021.39 1021.55 1021.71 1021.67 1021.67 1021.79 1021.91 1021.91 1021.95 1021.91 1021.95 1021.91 1021.87 1021.79 1021.71 1021.67 1021.55 1021.43 1021.35 1021.23 1021.07 1020.87 1020.71 1020.55 1020.51 1020.39 1020.23 1019.95 1019.71 1019.43 1019.15 1018.83 1018.55 1018.23 1017.91 1017.63 1017.39
1014.99 1015.31 1015.43 1015.55 1015.71 1015.87 1016.15 1016.27 1016.35 1016.51 1016.71 1016.87 1017.03 1017.15 1017.23 1017.43 1017.51 1017.71 1017.87 1018.39 1018.99 1019.23 1019.55 1019.47 1019.43 1019.59 1019.67 1019.67 1019.91 1020.07 1020.11 1020.31 1020.59 1020.83 1020.99 1021.03 1021.11 1021.15 1021.23 1021.35 1021.39 1021.39 1021.47 1021.55 1021.59 1021.67 1021.67 1021.67 1021.67 1021.59 1021.51 1021.47 1021.43 1021.35 1021.19 1021.07 1020.91 1020.75 1020.59 1020.39 1020.23 1020.23 1020.11 1019.87 1019.63 1019.39 1019.11 1018.79 1018.47 1018.11 1017.79 1017.51 1017.27 1016.99
1014.63 1014.79 1015.11 1015.23 1015.39 1015.59 1015.91 1016.07 1016.27 1016.35 1016.39 1016.59 1016.75 1016.91 1017.07 1017.19 1017.39 1017.59 1017.83 1017.87 1018.39 1019.11 1019.27 1019.47 1019.31 1019.39 1019.51 1019.63 1019.67 1019.91 1020.11 1020.31 1020.59 1020.63 1020.63 1020.79 1020.91 1020.95 1020.99 1021.03 1021.11 1021.11 1021.15 1021.19 1021.27 1021.35 1021.35 1021.35 1021.39 1021.35 1021.27 1021.23 1021.19 1021.07 1020.91 1020.71 1020.55 1020.39 1020.23 1020.03 1019.95 1019.95 1019.71 1019.47 1019.31 1019.07 1018.79 1018.43 1018.07 1017.79 1017.47 1017.23 1016.95 1016.55
1014.07 1014.27 1014.47 1014.79 1015.07 1015.31 1015.59 1015.83 1016.03 1016.15 1016.27 1016.31 1016.51 1016.71 1016.95 1017.11 1017.27 1017.47 1017.67 1017.79 1017.91 1018.55 1018.91 1019.19 1019.27 1019.27 1019.35 1019.35 1019.47 1019.71 1020.07 1020.43 1020.47 1020.47 1020.55 1020.51 1020.55 1020.63 1020.63 1020.75 1020.75 1020.75 1020.83 1020.95 1020.99 1021.03 1021.03 1021.07 1021.15 1021.15 1021.11 1021.07 1020.99 1020.83 1020.59 1020.39 1020.19 1020.03 1019.87 1019.75 1019.75 1019.55 1019.31 1019.15 1018.95 1018.71 1018.35 1017.99 1017.71 1017.43 1017.15 1016.87 1016.55 1016.11
1013.59 1013.79 1014.07 1014.35 1014.59 1014.91 1015.15 1015.47 1015.59 1015.79 1015.99 1016.19 1016.35 1016.55 1016.75 1016.91 1017.07 1017.35 1017.63 1017.75 1017.91 1018.15 1018.63 1018.87 1019.19 1019.39 1019.35 1019.55 1019.47 1019.55 1019.67 1020.07 1020.39 1020.43 1020.35 1020.27 1020.31 1020.39 1020.51 1020.59 1020.59 1020.63 1020.75 1020.95 1020.95 1020.99 1020.99 1020.99 1020.99 1020.99 1020.95 1020.83 1020.71 1020.51 1020.31 1020.15 1019.95 1019.83 1019.71 1019.47 1019.27 1019.11 1018.99 1018.83 1018.63 1018.31 1017.95 1017.67 1017.39 1017.15 1016.87 1016.55 1016.11 1015.99
1013.23 1013.43 1013.71 1013.95 1014.11 1014.31 1014.55 1014.95 1015.19 1015.43 1015.67 1015.91 1016.11 1016.27 1016.47 1016.63 1016.87 1017.35 1017.51 1017.79 1017.91 1018.15 1018.55 1018.87 1018.87 1019.07 1019.27 1019.27 1019.43 1019.39 1019.51 1019.71 1019.87 1020.03 1020.27 1020.31 1020.27 1020.31 1020.39 1020.43 1020.51 1020.59 1020.67 1020.63 1020.55 1020.47 1020.51 1020.63 1020.71 1020.75 1020.67 1020.59 1020.35 1020.15 1019.99 1019.87 1019.75 1019.59 1019.35 1019.15 1019.03 1018.87 1018.71 1018.55 1018.27 1017.95 1017.63 1017.39 1017.15 1016.91 1016.51 1016.11 1016.03 1015.87
1012.91 1013.11 1013.35 1013.55 1013.71 1013.83 1014.03 1014.27 1014.71 1014.99 1015.31 1015.59 1015.83 1016.03 1016.19 1016.55 1016.95 1017.23 1017.51 1017.71 1017.91 1018.19 1018.43 1018.55 1018.91 1019.03 1019.15 1019.31 1019.27 1019.43 1019.59 1019.83 1019.95 1019.91 1020.03 1020.23 1020.27 1020.27 1020.23 1020.27 1020.31 1020.31 1020.39 1020.43 1020.51 1020.55 1020.71 1020.75 1020.67 1020.55 1020.47 1020.27 1020.03 1019.91 1019.83 1019.71 1019.51 1019.31 1019.11 1018.99 1018.83 1018.67 1018.47 1018.23 1017.95 1017.67 1017.43 1017.15 1016.83 1016.43 1016.07 1016.03 1015.83 1015.55
1012.67 1012.91 1013.07 1013.19 1013.35 1013.51 1013.71 1013.87 1014.19 1014.51 1014.79 1015.23 1015.59 1015.95 1016.11 1016.43 1016.75 1017.11 1017.31 1017.47 1017.79 1018.03 1018.27 1018.51 1018.75 1018.87 1019.07 1019.15 1019.27 1019.43 1019.51 1019.63 1019.67 1019.79 1019.83 1019.91 1020.11 1020.23 1020.23 1020.23 1020.31 1020.27 1020.19 1020.23 1020.31 1020.27 1020.27 1020.35 1020.35 1020.19 1020.03 1019.87 1019.83 1019.79 1019.75 1019.55 1019.31 1019.11 1018.99 1018.91 1018.71 1018.47 1018.23 1017.99 1017.67 1017.39 1017.07 1016.71 1016.31 1016.07 1016.03 1015.83 1015.63 1015.39
1012.43 1012.59 1012.79 1012.91 1012.99 1013.23 1013.47 1013.75 1014.03 1014.35 1014.55 1014.67 1014.91 1015.39 1015.87 1016.19 1016.59 1016.87 1017.11 1017.35 1017.51 1017.71 1018.03 1018.23 1018.55 1018.79 1018.87 1018.91 1018.99 1019.07 1019.19 1019.31 1019.59 1019.67 1019.79 1019.95 1020.07 1020.11 1020.19 1020.35 1020.11 1020.07 1020.07 1020.15 1020.11 1020.07 1019.99 1019.99 1019.95 1019.95 1019.99 1019.79 1019.75 1019.75 1019.59 1019.35 1019.19 1018.95 1018.83 1018.63 1018.43 1018.23 1017.95 1017.59 1017.31 1017.03 1016.71 1016.35 1016.11 1016.03 1015.83 1015.67 1015.51 1015.27
1012.27 1012.43 1012.51 1012.67 1012.79 1012.99 1013.31 1013.63 1013.91 1014.19 1014.31 1014.51 1014.75 1015.07 1015.35 1015.67 1015.99 1016.55 1016.87 1017.07 1017.23 1017.47 1017.67 1018.07 1018.31 1018.35 1018.51 1018.63 1018.71 1018.75 1018.91 1019.19 1019.31 1019.47 1019.67 1019.79 1020.03 1020.19 1020.35 1020.43 1020.15 1020.15 1020.07 1020.11 1020.15 1019.95 1019.83 1019.95 1019.95 1019.87 1019.83 1019.71 1019.67 1019.51 1019.31 1019.15 1018.99 1018.83 1018.67 1018.43 1018.23 1017.95 1017.67 1017.35 1017.11 1016.79 1016.39 1016.15 1016.07 1015.87 1015.75 1015.59 1015.39 1015.11
1011.91 1012.15 1012.39 1012.51 1012.63 1012.91 1013.15 1013.51 1013.87 1014.03 1014.19 1014.39 1014.67 1014.99 1015.31 1015.63 1015.75 1015.79 1016.07 1016.55 1017.11 1017.27 1017.43 1017.75 1017.83 1018.03 1018.15 1018.23 1018.59 1018.63 1018.79 1018.99 1019.31 1019.35 1019.51 1019.71 1019.87 1020.07 1020.19 1020.23 1020.31 1019.95 1020.03 1019.99 1020.07 1019.95 1019.67 1019.71 1019.79 1019.83 1019.63 1019.55 1019.43 1019.23 1019.11 1018.99 1018.83 1018.67 1018.47 1018.23 1017.95 1017.71 1017.43 1017.19 1016.91 1016.55 1016.31 1016.15 1015.91 1015.75 1015.67 1015.51 1015.27 1015.03
1011.47 1011.79 1012.11 1012.35 1012.55 1012.75 1012.99 1013.39 1013.75 1014.07 1014.39 1014.59 1014.71 1014.95 1015.31 1015.59 1015.71 1015.91 1016.03 1016.11 1016.19 1016.67 1016.95 1017.19 1017.55 1017.59 1017.67 1017.95 1018.15 1018.15 1018.27 1018.63 1018.99 1019.27 1019.39 1019.47 1019.59 1019.79 1019.91 1020.07 1020.11 1019.83 1019.95 1019.95 1020.07 1019.99 1019.59 1019.71 1019.67 1019.71 1019.51 1019.35 1019.23 1019.07 1018.91 1018.79 1018.67 1018.43 1018.23 1017.99 1017.75 1017.55 1017.31 1017.07 1016.83 1016.51 1016.27 1016.03 1015.83 1015.75 1015.67 1015.51 1015.27 1014.99
1010.99 1011.31 1011.67 1012.07 1012.51 1012.75 1012.99 1013.31 1013.63 1013.99 1014.35 1014.79 1014.99 1015.11 1015.27 1015.47 1015.71 1015.87 1015.95 1016.07 1016.27 1016.39 1016.47 1016.75 1016.91 1017.07 1017.15 1017.23 1017.51 1017.75 1017.91 1018.35 1018.67 1018.99 1019.15 1019.39 1019.63 1019.87 1019.87 1019.91 1019.95 1019.79 1019.83 1019.87 1020.03 1020.07 1019.51 1019.55 1019.63 1019.55 1019.27 1019.15 1019.03 1018.87 1018.75 1018.63 1018.47 1018.27 1018.03 1017.87 1017.67 1017.43 1017.19 1016.99 1016.75 1016.39 1016.19 1015.91 1015.87 1015.83 1015.71 1015.47 1015.19 1014.95
1010.47 1010.83 1011.19 1011.59 1012.03 1012.51 1012.83 1013.07 1013.27 1013.75 1014.23 1014.59 1014.91 1015.07 1015.23 1015.35 1015.55 1015.71 1015.91 1016.03 1016.15 1016.27 1016.35 1016.43 1016.59 1016.79 1016.99 1016.95 1017.15 1017.51 1017.75 1017.79 1018.15 1018.43 1018.83 1019.11 1019.39 1019.59 1019.83 1019.75 1019.71 1019.51 1019.47 1019.79 1019.99 1019.91 1019.39 1019.63 1019.43 1019.23 1019.07 1018.91 1018.79 1018.71 1018.59 1018.47 1018.31 1018.07 1017.87 1017.75 1017.47 1017.23 1017.07 1016.91 1016.59 1016.27 1016.07 1015.91 1015.91 1015.87 1015.67 1015.43 1015.19 1014.91
1010.03 1010.39 1010.83 1011.31 1011.79 1012.19 1012.47 1012.79 1012.99 1013.31 1013.87 1014.31 1014.71 1014.99 1015.23 1015.43 1015.59 1015.67 1015.91 1016.07 1016.11 1016.19 1016.27 1016.43 1016.59 1016.83 1016.91 1016.95 1017.11 1017.35 1017.59 1017.95 1018.27 1018.55 1018.83 1019.11 1019.27 1019.43 1019.55 1019.71 1019.67 1019.75 1019.39 1019.59 1019.67 1019.79 1019.39 1019.47 1019.15 1018.95 1018.87 1018.91 1018.71 1018.51 1018.51 1018.31 1018.11 1017.87 1017.71 1017.51 1017.27 1017.11 1016.99 1016.75 1016.43 1016.15 1015.99 1015.91 1015.95 1015.83 1015.63 1015.39 1015.15 1014.83
1009.63 1009.99 1010.43 1010.87 1011.43 1011.83 1012.15 1012.55 1012.83 1013.07 1013.31 1013.95 1014.43 1014.79 1015.11 1015.35 1015.51 1015.67 1016.19 1016.39 1016.27 1016.35 1016.47 1016.55 1016.87 1017.07 1017.07 1017.11 1017.15 1017.31 1017.47 1017.71 1018.03 1018.35 1018.67 1018.95 1019.19 1019.43 1019.79 1019.87 1019.79 1019.39 1019.39 1019.39 1019.39 1019.15 1019.19 1019.11 1018.99 1018.83 1018.71 1018.75 1018.63 1018.47 1018.27 1018.15 1017.95 1017.75 1017.55 1017.31 1017.11 1017.03 1016.87 1016.55 1016.31 1016.07 1015.91 1015.95 1015.91 1015.79 1015.63 1015.39 1015.07 1014.71
1009.15 1009.51 1009.91 1010.35 1010.87 1011.35 1011.75 1012.31 1012.59 1012.83 1012.91 1013.47 1014.03 1014.51 1014.95 1015.35 1015.51 1015.87 1016.27 1016.39 1016.83 1016.87 1016.83 1016.87 1016.99 1017.11 1017.15 1017.19 1017.27 1017.31 1017.47 1017.63 1017.75 1018.07 1018.47 1018.83 1019.11 1019.39 1019.67 1019.71 1019.55 1019.39 1019.23 1019.03 1019.11 1018.95 1018.99 1019.03 1019.03 1018.83 1018.71 1018.59 1018.51 1018.39 1018.19 1018.03 1017.83 1017.63 1017.39 1017.19 1017.07 1016.95 1016.75 1016.47 1016.27 1015.95 1015.87 1015.91 1015.91 1015.83 1015.67 1015.39 1015.03 1014.67
1008.79 1009.23 1009.59 1009.87 1010.31 1010.75 1011.39 1012.03 1012.31 1012.55 1012.55 1012.87 1013.51 1014.03 1014.59 1014.99 1015.19 1015.39 1015.71 1015.79 1016.31 1016.67 1016.83 1017.11 1017.07 1017.27 1017.31 1017.27 1017.31 1017.47 1017.51 1017.59 1017.75 1017.91 1018.15 1018.71 1018.79 1019.07 1019.35 1019.51 1019.63 1019.43 1019.03 1018.87 1018.95 1018.91 1018.99 1018.91 1018.83 1019.03 1018.91 1018.87 1018.43 1018.31 1018.07 1017.87 1017.67 1017.47 1017.35 1017.23 1017.07 1016.87 1016.63 1016.43 1016.23 1015.91 1015.87 1015.95 1015.99 1015.87 1015.67 1015.39 1015.07 1014.75
1008.63 1008.87 1009.31 1009.75 1010.03 1010.55 1011.19 1011.75 1012.07 1012.23 1012.31 1012.51 1013.07 1013.59 1013.99 1014.43 1014.51 1014.91 1015.27 1015.43 1015.63 1016.07 1016.19 1016.59 1016.79 1016.91 1017.19 1017.27 1017.35 1017.47 1017.59 1017.67 1017.75 1017.91 1018.11 1018.35 1018.59 1018.83 1019.07 1019.27 1019.43 1019.39 1019.03 1018.67 1018.87 1018.67 1018.87 1018.91 1018.63 1018.91 1019.03 1019.31 1018.95 1018.07 1017.99 1017.71 1017.47 1017.35 1017.27 1017.23 1017.11 1016.79 1016.63 1016.47 1016.23 1015.95 1015.87 1015.99 1015.99 1015.87 1015.67 1015.43 1015.15 1014.83
1008.03 1008.51 1008.95 1009.47 1009.91 1010.35 1010.95 1011.35 1011.59 1011.87 1012.03 1012.19 1012.59 1012.91 1013.19 1013.31 1013.63 1014.55 1014.95 1015.43 1015.55 1015.87 1016.15 1016.43 1016.75 1016.91 1017.15 1017.19 1017.27 1017.39 1017.55 1017.67 1017.83 1017.95 1018.07 1018.19 1018.35 1018.59 1018.87 1019.07 1019.19 1019.19 1018.95 1018.63 1018.67 1018.71 1018.67 1018.67 1018.67 1018.63 1018.71 1018.91 1018.59 1018.39 1017.91 1017.75 1017.31 1017.15 1017.15 1017.23 1017.11 1016.83 1016.75 1016.59 1016.31 1016.03 1015.91 1015.99 1015.99 1015.91 1015.75 1015.55 1015.23 1014.91
1007.47 1007.71 1008.31 1009.03 1009.67 1009.99 1010.47 1010.83 1011.23 1011.43 1011.71 1011.99 1012.27 1012.47 1012.71 1013.35 1013.91 1014.19 1014.43 1014.91 1015.43 1015.79 1016.11 1016.43 1016.71 1016.87 1016.99 1017.07 1017.19 1017.31 1017.43 1017.55 1017.75 1017.83 1017.95 1018.07 1018.19 1018.35 1018.43 1018.55 1018.75 1018.95 1018.51 1018.15 1018.47 1018.47 1018.55 1018.39 1018.35 1018.59 1018.63 1018.71 1018.39 1018.39 1018.11 1017.55 1017.19 1017.07 1017.27 1017.11 1017.03 1016.83 1016.79 1016.67 1016.31 1016.11 1015.99 1016.07 1016.11 1016.07 1015.91 1015.59 1015.23 1014.95
1006.91 1007.35 1007.87 1008.51 1009.23 1009.55 1009.99 1010.39 1010.63 1011.03 1011.43 1011.87 1012.03 1012.35 1012.75 1013.19 1013.59 1013.99 1014.43 1014.83 1015.19 1015.59 1015.91 1016.23 1016.43 1016.63 1016.71 1016.79 1016.91 1017.07 1017.19 1017.39 1017.51 1017.67 1017.75 1017.87 1018.03 1018.15 1018.23 1018.27 1018.35 1018.27 1018.03 1017.99 1018.15 1018.27 1018.47 1018.27 1018.07 1018.39 1018.39 1018.47 1018.51 1018.27 1018.07 1017.71 1017.03 1017.15 1017.15 1017.07 1016.95 1016.79 1016.79 1016.63 1016.35 1016.15 1015.99 1016.11 1016.23 1016.07 1015.87 1015.59 1015.35 1014.99
1006.55 1007.03 1007.55 1008.31 1008.99 1009.31 1009.59 1009.87 1010.35 1010.79 1011.27 1011.47 1011.83 1012.19 1012.47 1012.91 1013.43 1013.83 1014.27 1014.63 1014.87 1015.31 1015.71 1015.95 1016.11 1016.23 1016.31 1016.39 1016.55 1016.63 1016.75 1016.95 1017.15 1017.23 1017.39 1017.59 1017.71 1017.83 1017.95 1018.03 1018.15 1018.15 1018.03 1017.95 1017.87 1018.03 1018.23 1018.19 1017.99 1018.03 1018.23 1018.19 1018.31 1018.19 1017.87 1017.35 1017.59 1017.63 1017.35 1017.07 1016.95 1016.75 1016.71 1016.51 1016.35 1016.15 1015.95 1016.15 1016.23 1016.11 1015.87 1015.67 1015.43 1015.15
1006.03 1006.47 1007.15 1007.91 1008.47 1008.91 1009.31 1009.75 1010.43 1010.99 1011.19 1011.35 1011.63 1011.91 1012.23 1012.67 1013.27 1013.59 1013.95 1014.27 1014.67 1015.07 1015.27 1015.43 1015.59 1015.71 1015.79 1015.79 1015.75 1016.03 1016.27 1016.51 1016.79 1017.07 1017.23 1017.31 1017.51 1017.63 1017.75 1017.91 1017.99 1017.99 1017.95 1017.71 1017.67 1017.67 1017.79 1017.91 1017.75 1017.59 1017.87 1017.95 1017.91 1017.59 1017.59 1017.55 1017.75 1017.47 1017.23 1017.11 1016.91 1016.59 1016.55 1016.43 1016.27 1016.15 1015.95 1016.03 1016.15 1016.07 1015.95 1015.87 1015.51 1015.15
1006.07 1006.59 1007.03 1007.51 1008.27 1009.07 1009.59 1010.23 1010.71 1010.99 1011.19 1011.23 1011.47 1011.83 1012.11 1012.51 1012.87 1013.27 1013.59 1013.95 1014.27 1014.47 1014.75 1014.95 1015.15 1015.19 1015.43 1015.59 1015.59 1015.75 1016.03 1016.43 1016.63 1016.71 1016.87 1017.27 1017.47 1017.67 1017.83 1017.99 1017.91 1017.75 1017.63 1017.43 1017.31 1017.27 1017.35 1017.47 1017.43 1017.43 1017.47 1017.39 1017.59 1017.31 1017.71 1017.71 1017.27 1016.99 1016.91 1016.99 1017.11 1016.59 1016.27 1016.27 1016.19 1016.11 1015.95 1015.91 1016.07 1016.03 1015.87 1015.75 1015.51 1015.23
1005.95 1006.59 1007.11 1007.83 1008.43 1008.75 1009.07 1009.35 1009.91 1010.51 1011.27 1011.67 1011.79 1011.91 1012.03 1012.19 1012.47 1012.79 1012.99 1013.23 1013.55 1013.91 1014.23 1014.55 1014.75 1014.91 1015.03 1015.15 1015.43 1015.71 1015.95 1016.11 1016.23 1016.35 1016.51 1016.91 1017.07 1017.39 1017.55 1017.75 1017.71 1017.55 1017.19 1017.07 1016.99 1016.95 1016.99 1016.99 1017.03 1017.23 1017.23 1016.95 1016.95 1017.51 1017.43 1017.35 1016.95 1016.75 1016.79 1016.95 1017.19 1016.55 1016.47 1016.19 1016.11 1016.07 1015.99 1015.91 1015.95 1015.99 1015.83 1015.63 1015.43 1015.27
1006.47 1007.15 1007.87 1008.59 1009.15 1009.63 1010.15 1010.43 1010.75 1011.07 1011.35 1011.39 1011.63 1011.87 1011.95 1011.91 1012.11 1012.35 1012.63 1012.99 1013.23 1013.51 1013.71 1014.03 1014.31 1014.51 1014.71 1014.87 1014.99 1015.19 1015.51 1015.63 1015.67 1015.99 1016.31 1016.51 1016.75 1016.99 1017.27 1017.71 1017.67 1017.35 1016.99 1016.71 1016.59 1016.51 1016.55 1016.47 1016.39 1016.51 1016.59 1016.67 1016.51 1016.91 1017.23 1016.95 1016.55 1016.75 1016.79 1016.95 1016.79 1016.39 1016.31 1016.07 1016.11 1016.07 1016.03 1015.91 1015.79 1015.83 1015.79 1015.63 1015.35 1015.27
1007.19 1007.67 1008.27 1008.79 1009.27 1009.55 1009.83 1010.27 1010.51 1010.95 1011.31 1011.47 1011.47 1011.55 1011.67 1011.71 1011.83 1012.11 1012.39 1012.63 1012.91 1013.23 1013.55 1013.67 1013.83 1013.99 1014.31 1014.43 1014.63 1014.79 1015.03 1015.19 1015.23 1015.59 1015.71 1015.95 1016.11 1016.67 1016.95 1016.87 1016.67 1016.51 1016.39 1016.27 1016.23 1016.11 1016.03 1015.99 1015.99 1016.03 1016.31 1016.59 1016.75 1016.63 1016.47 1016.43 1016.63 1016.83 1016.91 1016.63 1016.55 1016.27 1016.11 1016.07 1016.15 1016.19 1016.03 1015.75 1015.83 1015.83 1015.67 1015.47 1015.35 1015.27
1006.75 1007.39 1007.83 1008.35 1008.63 1008.95 1009.31 1009.75 1010.15 1010.59 1010.99 1011.39 1011.67 1011.79 1011.63 1011.59 1011.59 1011.71 1011.95 1012.23 1012.51 1012.87 1013.07 1013.27 1013.51 1013.75 1013.99 1014.15 1014.43 1014.59 1014.59 1014.75 1014.95 1015.11 1014.99 1015.35 1015.51 1015.87 1016.27 1016.19 1016.15 1016.23 1016.35 1016.27 1016.11 1015.95 1015.83 1015.71 1015.79 1016.19 1016.39 1016.47 1016.59 1016.47 1016.27 1016.31 1016.51 1016.35 1016.67 1016.59 1016.47 1016.27 1016.03 1016.03 1016.11 1016.19 1016.03 1016.03 1016.07 1015.91 1015.79 1015.47 1015.27 1015.15
1006.19 1006.99 1007.63 1008.19 1008.35 1008.35 1008.59 1009.11 1009.59 1010.31 1010.75 1011.27 1011.79 1012.11 1012.03 1011.67 1011.51 1011.55 1011.67 1011.91 1012.31 1012.63 1012.87 1013.07 1013.23 1013.43 1013.67 1013.75 1013.95 1014.15 1014.23 1014.31 1014.59 1014.99 1015.03 1015.03 1015.39 1015.55 1015.83 1016.03 1015.95 1016.07 1016.19 1016.03 1015.91 1015.75 1015.75 1015.67 1015.75 1015.91 1016.59 1016.59 1016.43 1016.55 1016.43 1016.27 1016.15 1016.35 1016.51 1016.47 1016.47 1016.27 1015.95 1016.07 1016.19 1016.11 1015.95 1015.87 1016.03 1015.95 1015.87 1015.59 1015.27 1015.03
1006.15 1006.43 1006.99 1007.47 1007.59 1007.87 1008.39 1008.87 1009.35 1009.75 1009.95 1010.55 1010.83 1011.31 1011.87 1011.79 1011.55 1011.51 1011.39 1011.67 1011.99 1012.35 1012.67 1012.87 1012.99 1013.15 1013.27 1013.39 1013.55 1013.67 1013.79 1014.03 1014.35 1014.67 1014.99 1015.11 1015.27 1015.47 1015.71 1015.79 1015.79 1015.71 1015.79 1015.75 1015.63 1015.63 1015.79 1015.71 1015.63 1015.67 1015.95 1016.35 1016.47 1016.39 1015.91 1016.23 1016.31 1016.07 1016.31 1016.31 1016.27 1016.15 1015.95 1016.07 1016.31 1016.19 1015.87 1015.79 1015.95 1015.99 1015.83 1015.67 1015.27 1014.99
1005.51 1005.91 1005.99 1006.39 1006.83 1007.31 1007.55 1008.11 1008.59 1008.99 1009.27 1009.59 1010.03 1010.23 1010.59 1011.19 1011.27 1011.23 1011.31 1011.59 1011.79 1012.07 1012.35 1012.67 1012.83 1012.99 1013.03 1013.11 1013.15 1013.35 1013.59 1013.83 1014.03 1014.43 1014.55 1014.87 1015.03 1015.27 1015.47 1015.67 1015.63 1015.43 1015.55 1015.47 1015.59 1015.63 1015.55 1015.35 1015.75 1015.71 1015.95 1016.31 1016.35 1016.23 1016.19 1016.07 1016.23 1016.31 1016.11 1016.03 1016.11 1015.91 1015.87 1016.11 1016.11 1015.75 1015.91 1015.99 1015.71 1015.75 1015.83 1015.75 1015.27 1014.95
1005.03 1005.39 1005.59 1005.91 1006.19 1006.59 1006.91 1007.27 1007.87 1008.35 1008.51 1009.03 1009.75 1009.99 1010.43 1010.87 1011.11 1011.27 1011.35 1011.47 1011.59 1011.95 1012.19 1012.39 1012.59 1012.91 1012.91 1013.07 1012.99 1013.11 1013.55 1013.71 1013.75 1013.99 1014.07 1014.39 1014.75 1015.15 1015.23 1015.27 1015.31 1015.23 1015.23 1015.23 1015.39 1015.35 1015.55 1015.55 1015.67 1015.63 1015.63 1015.87 1015.99 1016.35 1015.99 1016.03 1016.15 1015.95 1016.11 1015.91 1015.83 1015.75 1016.15 1015.99 1015.59 1015.71 1015.71 1015.83 1015.71 1015.63 1015.71 1015.47 1015.19 1014.99
1003.91 1004.55 1004.87 1005.31 1005.87 1006.19 1006.59 1006.99 1007.43 1007.83 1008.31 1009.11 1009.59 1009.51 1009.55 1010.15 1010.67 1011.03 1011.15 1011.15 1011.35 1011.67 1011.99 1012.15 1012.31 1012.59 1012.75 1012.91 1012.95 1012.99 1013.27 1013.55 1013.71 1013.83 1013.91 1014.03 1014.19 1014.43 1014.67 1014.75 1014.79 1015.11 1015.15 1015.03 1015.35 1015.35 1015.31 1015.31 1015.47 1015.47 1015.47 1015.59 1015.71 1015.67 1015.95 1016.03 1015.79 1015.79 1015.87 1015.91 1015.63 1015.67 1015.99 1015.87 1015.55 1015.83 1015.79 1015.59 1015.55 1015.67 1015.51 1015.67 1015.47 1015.31
1003.67 1003.99 1004.47 1004.91 1005.51 1005.99 1006.47 1006.83 1007.19 1007.43 1007.75 1008.63 1009.43 1009.75 1009.79 1010.03 1010.19 1010.43 1010.75 1010.95 1011.11 1011.31 1011.63 1011.87 1012.03 1012.35 1012.55 1012.67 1012.87 1013.03 1013.07 1013.19 1013.31 1013.59 1013.75 1013.87 1014.03 1014.19 1014.35 1014.51 1014.55 1014.67 1014.83 1014.91 1015.19 1015.23 1015.31 1015.19 1015.31 1015.31 1015.39 1015.31 1015.23 1015.47 1015.75 1015.99 1016.11 1016.31 1015.99 1015.63 1015.71 1015.71 1015.71 1015.79 1015.43 1015.51 1015.51 1015.59 1015.75 1015.59 1015.27 1015.39 1014.95 1015.11
1003.59 1004.07 1004.47 1004.87 1005.47 1006.03 1006.43 1006.91 1007.47 1007.99 1008.59 1009.07 1009.23 1009.35 1009.67 1010.07 1010.15 1010.07 1010.15 1010.51 1010.87 1011.15 1011.39 1011.63 1011.87 1012.03 1012.23 1012.39 1012.59 1012.83 1012.91 1013.15 1013.31 1013.35 1013.55 1013.71 1013.87 1014.07 1014.19 1014.47 1014.59 1014.87 1014.75 1014.91 1015.11 1015.15 1014.99 1014.95 1015.03 1015.23 1015.27 1015.31 1015.79 1015.83 1015.87 1015.67 1015.51 1015.59 1015.67 1015.43 1015.59 1015.75 1015.71 1015.79 1015.55 1015.55 1015.47 1015.55 1015.59 1015.35 1015.35 1015.19 1015.27 1015.07
1002.99 1003.43 1003.99 1004.51 1004.99 1005.55 1006.15 1006.75 1007.35 1007.91 1008.43 1008.71 1008.87 1008.91 1008.99 1009.23 1009.47 1009.67 1009.99 1010.23 1010.51 1010.79 1011.11 1011.35 1011.59 1011.79 1011.99 1012.15 1012.27 1012.59 1012.71 1012.95 1013.15 1013.27 1013.43 1013.59 1013.71 1013.87 1014.03 1014.31 1014.35 1014.83 1014.83 1014.71 1014.83 1014.79 1014.75 1014.95 1015.07 1015.31 1015.19 1015.19 1015.27 1015.51 1015.75 1015.75 1015.71 1015.63 1015.51 1015.43 1015.55 1015.91 1015.91 1015.83 1015.71 1015.63 1015.55 1015.47 1015.43 1015.39 1015.35 1015.31 1015.55 1015.07
1002.67 1002.91 1003.47 1003.99 1004.51 1005.11 1005.63 1006.19 1006.63 1007.03 1007.39 1007.75 1008.15 1008.23 1008.19 1008.59 1009.03 1009.47 1009.71 1009.91 1010.07 1010.51 1010.75 1011.03 1011.27 1011.47 1011.71 1011.91 1012.03 1012.19 1012.39 1012.75 1013.07 1013.15 1013.31 1013.47 1013.55 1013.67 1013.87 1014.23 1014.47 1014.63 1014.59 1014.51 1014.59 1014.71 1014.75 1014.91 1015.03 1015.31 1015.23 1015.03 1015.23 1015.31 1015.27 1015.63 1015.87 1015.75 1015.67 1015.35 1015.35 1015.55 1015.75 1015.83 1015.71 1015.63 1015.59 1015.63 1015.67 1015.59 1015.59 1015.63 1015.71 1015.55
1002.51 1002.75 1003.15 1003.59 1003.99 1004.39 1004.83 1005.43 1005.95 1006.47 1007.07 1007.39 1007.63 1007.79 1007.67 1007.91 1008.35 1008.71 1009.03 1009.39 1009.71 1010.03 1010.35 1010.59 1010.95 1011.15 1011.31 1011.51 1011.75 1011.99 1012.11 1012.35 1012.79 1012.91 1013.11 1013.31 1013.47 1013.55 1013.71 1014.03 1014.35 1014.47 1014.51 1014.35 1014.31 1014.43 1014.63 1014.95 1015.03 1015.27 1014.99 1014.91 1015.23 1015.19 1015.27 1015.47 1015.59 1015.47 1015.51 1015.27 1015.63 1015.71 1015.11 1015.31 1015.47 1015.47 1015.47 1015.35 1015.43 1015.51 1015.59 1015.67 1015.63 1015.59
1002.15 1002.39 1002.67 1003.11 1003.43 1003.83 1004.31 1004.83 1005.39 1005.95 1006.43 1006.99 1007.31 1007.35 1007.43 1007.75 1007.95 1008.35 1008.55 1008.79 1009.19 1009.55 1009.91 1010.19 1010.55 1010.79 1010.99 1011.23 1011.55 1011.71 1011.95 1012.19 1012.43 1012.55 1012.75 1013.11 1013.35 1013.47 1013.55 1013.83 1014.11 1014.23 1014.23 1014.23 1014.31 1014.31 1014.47 1014.43 1014.79 1015.19 1014.99 1014.91 1014.99 1014.83 1015.03 1015.23 1015.27 1015.35 1015.27 1015.15 1015.11 1015.43 1015.23 1015.11 1014.87 1014.83 1014.83 1014.75 1015.11 1015.35 1015.27 1015.35 1015.43 1015.47
Wind_Speed
9 8 8 8 7 6 6 5 6 6 6 6 6 7 7 7 6 4 5 6 7 7 8 7 7 8 6 8 6 8 8 9 11 7 7 7 6 9 11 11 11 11 10 10 11 10 10 9 9 10 11 11 12 12 12 13 13 14 14 15 15 14 13 13 13 14 15 16 16 16 15 15 15 15
8 8 7 7 7 7 6 7 7 7 7 7 6 6 6 7 7 6 6 6 7 6 6 5 5 4 7 8 7 6 7 11 12 7 6 6 5 10 12 12 12 12 12 11 11 10 10 11 11 12 11 12 12 13 13 13 14 15 15 16 15 14 14 14 15 16 15 16 16 16 15 16 16 17
9 9 9 8 8 7 8 7 7 6 6 7 6 6 6 5 6 6 5 3 3 4 8 6 4 6 6 8 7 5 6 9 10 7 5 5 8 11 10 13 13 13 13 12 11 10 10 11 11 12 12 13 14 14 15 15 14 14 15 14 14 13 12 14 16 17 18 18 18 19 18 18 18 18
9 9 10 9 8 8 7 7 6 6 6 6 6 6 6 5 6 6 5 5 4 1 6 7 5 9 8 7 8 6 5 7 11 5 5 5 8 7 6 11 14 14 13 12 11 11 11 11 11 11 12 13 14 15 15 14 13 14 14 15 14 13 12 13 15 17 18 19 20 20 20 20 20 20
9 10 10 9 9 8 7 7 6 6 6 5 6 5 6 6 5 5 5 5 3 1 2 4 5 6 9 5 6 8 6 5 5 5 5 4 5 5 6 7 12 15 13 12 12 12 11 10 9 11 12 13 14 15 14 13 14 14 15 15 16 14 13 13 13 16 18 19 20 21 21 21 21 21
9 9 10 9 9 8 8 7 7 7 6 6 6 6 7 7 6 5 5 4 5 2 1 4 5 6 6 7 4 8 7 5 4 5 4 4 5 6 6 6 7 13 13 13 14 13 12 11 12 13 14 14 14 14 14 14 14 15 16 16 16 14 14 14 14 17 18 19 19 19 19 20 20 19
9 9 9 9 8 6 7 7 7 6 7 7 8 7 6 6 6 4 4 4 2 6 1 2 6 6 5 6 6 5 6 7 7 7 6 6 5 5 6 6 6 10 14 15 16 14 13 13 13 14 14 14 15 15 14 14 15 16 16 17 16 14 14 17 15 17 19 19 19 19 18 18 19 20
11 10 9 8 9 8 8 7 6 6 7 8 7 7 5 5 5 4 4 5 5 3 6 3 5 4 6 3 3 5 5 7 6 7 7 5 5 6 6 6 6 8 14 16 16 15 14 14 14 14 15 14 14 15 15 16 16 16 17 17 16 14 16 17 17 17 18 20 20 19 20 18 19 22
11 11 11 9 8 8 9 7 7 7 7 7 7 7 6 6 5 3 5 6 5 6 7 5 3 3 3 3 3 5 6 3 5 5 6 7 7 7 7 6 7 9 13 14 16 16 15 14 14 14 14 14 15 16 16 17 17 17 17 17 15 15 16 16 17 18 19 20 20 20 20 21 20 23
11 10 10 9 9 9 9 8 8 8 8 7 7 7 6 6 4 4 4 4 5 7 7 8 4 2 5 1 3 3 6 7 5 4 4 2 2 2 3 4 4 4 4 4 7 10 11 12 14 14 14 15 16 17 16 16 16 16 15 15 15 15 15 16 16 18 19 20 20 20 20 21 19 19
10 9 9 9 10 10 9 9 9 8 7 8 7 7 7 5 5 4 6 6 6 6 6 4 5 5 4 4 4 2 5 7 5 6 2 3 3 2 3 3 1 2 3 7 11 10 10 10 9 11 14 16 17 15 14 14 14 13 14 14 13 14 14 15 17 18 19 19 19 19 19 19 16 15
10 9 9 9 9 10 9 9 8 9 9 6 6 6 6 6 6 7 6 7 7 6 6 6 5 3 5 2 1 2 4 4 1 2 3 5 2 1 1 3 3 2 3 5 5 6 5 7 10 13 14 15 13 12 11 11 11 11 11 11 12 13 14 15 17 18 18 19 18 18 18 16 15 13
9 9 9 9 9 9 11 13 11 10 10 8 8 6 6 7 8 7 7 7 7 7 7 6 3 5 5 6 6 3 3 5 7 4 3 2 2 1 0 3 3 4 1 0 1 3 5 5 6 5 4 6 8 8 9 7 10 11 10 10 11 12 13 15 16 16 17 18 18 17 15 14 12 10
9 9 8 8 14 14 15 14 15 15 14 13 10 9 7 8 8 8 8 8 7 7 7 7 7 7 8 7 6 5 3 3 2 3 3 3 1 1 2 4 3 1 2 0 1 3 3 0 4 3 4 6 4 5 5 5 8 10 12 13 13 12 14 16 16 16 17 18 17 14 13 11 9 7
9 7 8 7 11 13 13 13 16 14 15 14 14 13 12 11 11 9 9 8 8 8 7 6 7 8 8 7 6 7 6 4 6 5 4 4 2 2 1 3 3 1 1 1 1 5 3 0 4 5 6 6 5 5 4 9 12 12 12 12 13 15 16 17 17 17 18 17 14 12 10 8 6 5
9 9 8 7 7 8 10 9 10 12 14 15 14 13 13 13 12 12 11 9 6 6 7 7 8 8 8 7 6 5 5 5 4 5 5 4 4 3 2 2 3 3 1 1 1 6 5 1 2 4 6 5 4 3 6 10 11 12 11 12 14 15 17 17 17 18 18 15 12 10 7 5 5 8
10 9 9 8 7 7 14 10 9 8 7 9 13 14 13 11 11 9 7 7 9 8 8 8 7 8 7 7 7 7 8 6 7 5 5 4 4 3 3 4 2 6 1 2 0 3 6 1 2 4 6 4 3 4 6 9 11 12 12 12 14 16 17 17 17 18 16 12 10 6 4 6 8 10
11 11 10 9 8 6 9 9 10 9 9 8 8 8 7 7 6 8 10 9 9 8 8 8 9 7 6 8 8 7 8 9 8 7 5 4 4 4 3 2 4 5 1 2 1 2 7 2 1 2 5 4 4 4 6 10 10 12 13 13 14 15 16 16 16 16 13 10 5 4 5 8 10 11
12 12 11 11 10 10 10 9 12 11 10 9 8 8 7 7 6 6 5 5 5 5 4 6 5 4 4 6 7 7 7 9 8 8 6 6 4 2 0 1 2 5 3 3 3 4 6 1 0 2 4 5 6 5 6 9 10 12 13 13 14 14 15 14 15 15 10 4 4 4 8 11 11 12
11 11 11 10 10 11 11 13 18 15 12 11 10 9 7 6 5 4 1 2 5 4 5 6 6 4 4 7 9 8 8 7 7 7 6 5 3 2 1 2 4 2 5 2 5 2 2 2 1 3 3 3 5 6 6 8 10 12 12 12 12 13 13 14 15 14 8 5 5 8 10 12 12 12
12 11 11 11 11 11 11 15 19 19 17 11 11 10 9 7 6 6 2 5 9 10 11 12 10 8 9 10 12 13 13 10 8 7 6 3 3 2 1 2 2 4 1 1 4 3 0 1 1 4 3 2 4 6 7 5 7 11 12 12 12 12 13 14 14 14 7 6 6 10 12 14 13 14
11 13 18 15 13 13 12 18 19 20 17 13 12 11 10 9 8 5 4 5 5 8 10 10 10 9 10 11 11 12 13 13 10 8 7 5 6 4 5 3 2 4 4 2 1 0 1 2 1 2 5 4 2 5 6 5 6 9 9 11 12 12 13 13 14 14 8 5 6 10 13 15 14 9
11 11 15 20 16 15 15 21 20 21 17 13 13 12 11 10 10 10 9 9 8 6 6 4 6 4 5 5 6 6 10 11 8 7 7 6 7 6 6 3 0 2 3 2 2 1 1 1 3 1 4 3 6 3 3 4 6 6 6 6 8 12 13 13 13 14 8 6 7 10 12 16 13 8
10 11 11 15 19 19 19 20 21 20 19 14 12 11 12 12 13 10 9 8 9 8 8 7 5 6 4 4 4 4 4 4 4 6 7 7 7 7 7 5 3 3 3 2 2 1 2 2 3 1 2 1 3 4 4 5 5 6 5 5 6 10 10 10 9 13 9 8 9 11 14 15 15 9
13 12 11 10 17 20 21 22 22 22 20 17 13 13 13 14 11 11 8 9 10 8 7 6 5 6 5 4 4 5 5 5 5 4 5 6 7 7 7 6 5 6 6 6 5 1 2 1 3 2 1 2 3 3 4 4 7 5 4 4 5 7 6 7 5 8 7 6 8 11 13 14 16 13
12 13 12 11 16 22 23 22 22 23 21 19 12 14 15 12 15 13 9 9 8 7 7 6 6 6 6 6 6 5 6 6 5 6 6 6 6 7 7 8 8 5 7 7 9 3 1 3 4 3 2 1 5 1 4 6 6 5 4 5 6 6 4 6 6 7 5 2 3 6 8 12 15 16
13 11 12 12 21 24 24 23 24 23 22 17 12 16 15 16 18 13 8 8 8 7 7 7 7 7 7 7 7 7 6 6 6 6 7 6 6 6 7 7 7 8 9 6 4 4 3 4 2 4 5 2 3 4 3 3 6 5 7 6 6 7 5 4 7 6 5 3 3 7 7 9 12 14
13 13 12 13 23 23 24 24 22 21 19 14 16 18 18 18 15 10 9 8 8 8 8 8 8 8 7 7 7 7 7 7 8 8 7 7 7 7 7 7 7 7 8 8 7 5 5 6 7 4 5 4 5 6 7 6 2 2 4 6 6 6 4 4 6 6 5 3 3 5 6 6 6 6
13 15 19 22 24 23 23 22 20 17 18 17 18 19 19 17 9 9 9 9 8 9 9 9 8 8 8 9 8 7 7 7 5 4 4 4 5 6 5 5 5 6 6 7 8 7 6 7 8 6 3 4 5 6 4 4 1 4 2 4 5 6 4 5 5 6 7 3 3 4 4 5 6 6
17 18 20 25 24 19 17 15 12 12 12 16 19 19 17 10 10 9 9 9 10 10 9 9 9 8 7 6 7 7 6 6 7 7 6 6 6 5 5 5 7 7 8 9 8 8 6 6 7 5 6 6 6 8 1 0 3 3 3 2 6 6 3 6 6 6 6 5 1 1 2 3 5 5
13 16 17 15 18 16 22 20 16 13 10 10 12 11 10 9 10 9 10 11 11 10 9 8 7 6 7 7 6 6 6 7 7 7 7 7 7 7 6 6 7 7 9 8 8 8 7 6 5 4 6 6 6 2 3 5 0 2 4 4 2 3 4 5 6 6 5 6 2 0 3 5 5 5
10 11 9 11 9 9 9 9 7 7 8 8 9 9 9 9 9 10 10 8 8 8 8 7 6 6 6 7 7 6 7 8 8 7 7 8 7 7 6 4 7 8 8 6 6 5 5 6 7 6 8 8 6 1 2 2 1 1 4 4 3 3 3 5 6 6 5 4 5 2 3 4 6 5
9 9 10 10 10 11 12 11 10 9 9 8 8 10 9 8 8 9 8 9 9 8 8 8 8 8 6 7 7 7 7 6 6 7 9 8 9 7 7 9 8 5 6 7 5 6 5 5 6 5 2 2 4 4 4 3 2 2 3 4 2 4 5 5 3 5 5 5 6 6 6 6 5 4
12 12 12 11 12 12 12 12 11 11 10 9 8 7 8 8 8 9 9 8 8 8 9 8 8 8 7 7 7 7 7 7 7 7 8 6 6 7 6 7 7 6 5 6 6 6 6 4 3 6 5 3 2 5 6 3 1 2 2 1 0 2 5 4 4 3 4 3 4 6 6 7 7 5
13 11 11 11 11 13 13 13 12 11 11 10 6 4 5 7 9 8 9 9 7 7 7 8 7 8 8 8 7 7 7 7 7 6 5 6 6 7 7 7 7 7 6 6 5 4 2 4 2 4 6 3 1 2 4 2 1 1 2 1 2 2 5 2 3 4 4 6 4 5 6 6 7 7
11 12 13 12 13 13 13 12 11 12 12 11 13 12 9 9 8 10 10 9 8 8 8 6 6 7 8 8 8 8 8 6 7 7 7 6 7 7 6 7 8 7 5 5 6 5 3 1 3 4 4 2 2 2 3 3 1 1 1 2 3 3 3 2 3 2 5 6 4 4 4 5 7 7
13 12 13 14 13 14 15 14 13 13 14 14 13 12 12 10 10 9 8 7 8 8 8 8 6 6 6 7 7 6 6 6 5 7 8 8 7 8 8 8 8 6 3 5 6 4 2 2 2 6 6 4 2 0 4 5 7 6 4 2 3 4 3 2 2 5 3 1 4 4 2 3 6 7
13 13 12 12 13 13 13 14 13 13 14 14 13 12 11 10 8 8 6 8 8 8 8 8 7 7 6 7 6 6 5 6 5 6 6 8 6 6 8 8 6 4 5 3 1 2 0 3 5 6 6 4 1 0 3 4 2 2 4 3 3 6 1 1 4 2 4 4 1 3 3 4 6 7
14 15 14 13 12 12 13 13 13 13 11 10 11 12 13 11 9 9 9 9 9 8 8 8 7 8 7 7 6 7 7 6 6 5 6 7 7 7 7 7 4 2 1 1 3 2 3 4 6 6 6 6 3 2 3 2 3 4 5 8 5 2 1 1 0 0 1 3 5 5 3 4 6 4
12 11 10 11 11 10 10 10 10 11 11 11 12 10 10 11 11 10 10 10 10 9 8 8 7 8 8 8 6 5 6 7 7 6 7 7 7 7 6 5 5 3 0 1 1 2 1 5 5 6 6 7 6 5 4 4 1 2 5 8 6 5 3 3 0 0 2 2 0 3 6 6 5 5
11 11 10 9 9 9 10 9 8 9 9 9 9 9 10 9 10 10 10 10 8 8 8 7 8 9 8 8 8 8 7 6 5 6 7 7 7 6 6 6 3 3 3 4 4 3 2 3 8 9 4 3 3 4 4 3 2 1 3 6 7 4 6 4 2 3 1 1 0 2 3 5 3 5
12 12 11 10 11 11 10 10 10 8 7 8 11 11 10 11 10 12 10 11 11 8 8 8 8 8 8 8 8 8 8 7 7 7 6 7 7 6 5 4 5 3 5 6 6 6 5 3 1 2 1 3 2 1 1 2 2 4 3 5 6 5 1 2 2 3 2 2 1 2 3 5 3 5
12 12 11 11 10 11 11 12 12 13 13 12 11 12 12 11 10 11 9 9 9 8 8 8 8 9 9 8 8 9 8 7 7 7 7 7 7 7 6 5 6 6 7 6 6 4 4 3 1 1 1 2 1 2 1 2 4 4 4 4 2 4 3 3 2 3 3 1 4 4 2 1 1 5
11 11 10 11 11 13 13 12 12 12 11 11 10 10 11 10 10 11 10 10 10 10 9 8 8 9 9 9 9 8 8 8 7 8 8 7 7 7 7 6 5 5 6 5 3 4 3 3 2 2 2 3 3 2 1 2 2 6 6 4 1 2 1 3 3 4 5 7 7 7 7 7 8 8
12 12 11 11 11 11 11 11 12 12 12 10 9 11 11 10 8 8 10 11 10 10 9 9 9 8 9 9 9 9 8 8 8 8 8 7 7 7 6 6 5 6 6 4 3 2 2 1 1 2 3 2 4 3 3 3 2 2 2 2 1 2 2 1 1 4 5 5 5 4 10 8 8 8
Wind_Direction
186 186 187 192 197 208 209 213 211 210 197 186 177 173 177 175 182 183 212 226 221 236 202 183 213 195 151 161 171 162 172 172 170 174 174 175 181 192 192 198 208 222 232 235 233 236 241 246 251 259 266 276 283 290 293 293 294 293 291 292 292 293 294 295 291 287 288 289 291 290 286 283 286 291
184 187 191 194 203 206 204 213 211 206 202 189 182 177 175 164 181 188 193 240 215 230 212 182 175 167 153 154 169 170 169 177 170 175 173 171 181 194 197 202 210 224 231 232 230 234 243 251 257 264 271 277 283 287 286 286 285 286 287 288 288 288 290 291 287 286 283 281 279 278 277 279 284 287
183 189 193 194 201 200 202 201 198 198 189 194 193 194 175 176 175 181 183 227 264 192 193 206 173 150 160 162 159 166 167 176 173 175 175 181 185 188 201 206 212 222 228 230 230 231 238 245 249 258 265 270 275 278 279 278 279 280 281 282 282 282 284 284 283 284 284 284 285 285 284 282 282 282
190 188 192 192 193 194 193 199 197 197 197 190 187 188 188 187 179 157 162 189 242 252 190 176 148 149 151 160 154 160 169 184 180 174 187 186 178 180 204 213 215 221 225 227 231 233 237 244 253 259 260 262 264 268 269 271 274 275 276 276 276 277 274 272 275 279 282 284 285 285 283 280 279 278
187 188 192 193 197 189 193 200 199 199 200 196 195 191 182 191 187 164 160 166 209 344 14 109 130 147 140 160 166 157 168 172 195 190 190 173 166 184 197 211 221 222 223 224 229 235 237 243 250 254 255 259 262 264 267 270 271 272 272 274 275 274 273 273 272 276 280 282 282 282 280 277 276 275
188 186 191 197 196 192 194 201 204 198 199 191 186 189 176 185 200 187 159 176 142 168 358 68 97 143 166 153 194 160 169 188 178 187 199 200 190 195 196 205 223 224 220 221 227 232 235 240 248 253 257 260 262 263 266 269 272 272 272 273 275 276 277 275 274 278 279 279 278 277 275 274 274 271
184 182 192 197 193 192 200 208 208 189 189 182 184 187 176 181 195 197 173 133 137 144 158 165 143 159 171 165 187 179 182 179 175 184 206 207 209 213 203 204 218 221 217 219 223 228 232 239 245 250 254 257 260 264 268 269 270 271 272 273 274 278 277 277 277 279 281 281 280 278 275 275 278 278
190 190 185 192 189 191 198 202 196 194 176 172 177 182 196 180 189 195 179 169 138 166 139 223 176 180 160 214 187 166 176 163 179 193 209 207 205 217 213 205 213 224 217 217 219 224 230 236 242 249 254 259 263 268 271 272 272 272 272 273 276 278 275 276 278 279 279 278 279 279 282 283 282 282
190 192 194 188 179 176 184 188 187 183 183 182 173 183 186 184 190 177 176 178 143 143 161 180 221 178 193 201 184 152 158 191 196 204 202 201 203 207 213 200 214 217 213 213 218 223 229 235 242 251 258 264 268 271 273 275 277 278 278 281 282 275 274 277 278 279 278 278 280 283 287 290 287 285
192 192 193 189 184 179 177 185 182 178 183 178 178 179 180 180 178 169 154 150 150 152 170 164 173 200 176 193 229 178 164 165 194 217 246 293 290 214 238 224 210 203 193 217 234 241 241 246 249 253 260 264 268 269 271 275 279 284 287 285 278 275 276 277 278 277 276 279 283 288 291 290 287 296
194 190 190 192 194 195 187 176 182 182 178 176 181 176 176 176 163 159 153 154 150 159 160 183 177 171 212 165 199 236 163 180 173 182 177 245 295 288 215 275 307 205 230 230 227 224 219 228 240 252 255 259 262 271 279 285 291 290 287 287 285 281 279 278 277 277 279 283 289 289 286 290 306 315
192 189 186 189 190 190 190 183 182 176 178 170 172 179 167 159 157 160 156 151 155 159 167 177 181 180 173 209 236 74 92 109 95 162 149 196 240 261 299 219 239 278 200 245 262 265 267 268 258 261 259 258 266 278 292 300 294 292 294 297 295 290 283 279 278 280 284 287 288 291 299 315 320 316
188 184 184 185 185 185 183 181 178 181 170 165 174 190 163 160 159 158 157 157 161 163 161 186 164 161 169 183 155 148 152 172 186 221 153 173 206 202 340 304 240 218 214 229 188 238 207 216 231 242 288 292 294 304 302 291 301 304 313 315 301 290 285 282 281 284 290 298 301 304 318 322 318 310
189 186 183 185 181 180 178 178 176 174 173 174 174 174 167 163 161 164 161 167 170 169 173 179 168 174 187 191 179 171 207 175 137 106 129 158 259 37 358 320 290 317 97 86 329 284 260 221 308 319 293 286 299 283 288 302 305 314 326 324 315 307 303 302 303 306 306 305 310 322 323 321 313 316
188 186 182 180 179 175 176 175 174 174 176 176 175 170 171 169 165 165 170 178 171 174 182 180 173 181 191 204 188 183 179 165 160 176 161 152 116 144 185 263 307 278 123 99 23 307 276 144 295 300 287 282 285 272 294 306 314 321 325 317 314 314 313 312 314 313 312 318 328 327 327 322 327 330
181 179 179 181 173 175 175 171 174 175 175 170 167 160 163 170 172 173 171 172 177 174 176 183 190 179 189 196 186 188 158 175 153 164 153 156 154 164 183 197 206 248 47 82 31 292 287 336 256 285 278 265 241 273 289 306 314 319 314 312 316 320 318 318 317 317 325 333 330 338 337 344 342 331
179 175 174 175 174 173 167 160 162 156 154 149 145 142 142 146 149 149 159 176 179 170 176 183 193 188 185 181 197 186 177 158 161 163 161 168 160 172 196 227 238 289 204 57 256 256 275 295 276 278 273 250 269 286 299 304 312 308 304 311 320 321 320 318 320 324 337 336 342 354 11 350 337 333
181 179 175 170 170 164 163 161 158 152 145 143 138 141 145 144 136 136 136 141 161 171 177 177 195 214 172 184 186 191 154 150 167 161 178 151 121 138 191 210 212 255 171 195 169 309 285 275 224 259 268 269 284 274 280 298 305 301 302 315 322 324 321 320 321 327 342 340 11 47 2 347 344 335
183 181 176 172 168 166 169 169 161 151 151 148 151 151 155 155 157 148 143 146 148 139 143 163 173 169 183 167 158 156 159 153 161 161 159 162 164 173 249 337 293 304 282 155 137 229 267 305 27 268 278 302 300 283 289 298 294 293 303 316 323 324 323 321 321 332 348 16 86 23 359 355 345 332
180 178 171 169 166 170 172 171 161 155 150 151 155 159 158 155 151 149 125 144 132 138 143 139 143 151 140 144 143 144 134 124 118 108 97 82 83 82 40 274 301 292 290 140 142 178 273 247 16 289 277 302 303 300 302 285 283 289 304 314 321 325 325 323 325 336 4 93 70 17 4 354 342 333
176 175 171 170 169 171 175 168 163 157 153 157 162 162 165 162 150 156 73 80 103 112 110 111 113 122 117 122 128 129 131 135 133 109 107 145 121 124 202 285 313 272 265 271 161 151 242 286 286 299 286 287 291 302 294 285 281 293 299 312 323 327 327 328 329 337 22 104 56 26 12 359 346 335
177 178 172 172 171 173 174 166 165 163 159 165 167 165 161 160 159 166 149 115 74 85 101 108 113 113 115 117 123 131 134 139 138 134 160 188 127 153 168 209 232 282 319 267 165 80 222 279 264 270 303 342 280 266 269 269 290 298 310 321 323 327 329 327 328 340 22 110 47 30 14 6 353 344
176 179 176 175 172 174 168 167 168 169 170 170 170 169 163 169 175 182 168 150 141 139 119 108 110 97 118 124 129 136 137 140 140 145 158 156 148 182 192 185 295 337 299 267 146 78 280 317 276 134 4 337 285 266 267 292 296 305 310 321 324 326 327 327 326 344 19 101 40 27 16 9 1 349
181 177 176 177 169 167 163 169 171 176 177 172 172 164 174 175 190 182 171 166 155 160 158 161 163 158 169 153 133 128 131 149 147 147 154 161 160 170 187 189 181 192 227 264 144 111 260 191 273 176 160 224 293 290 336 309 293 293 299 330 336 323 329 326 330 339 18 118 51 31 18 9 4 351
179 178 177 174 169 162 167 173 176 179 184 177 172 177 181 192 180 155 163 169 161 159 160 160 165 162 167 173 171 165 167 178 181 171 171 171 167 168 180 197 211 233 246 247 186 98 245 205 266 340 338 153 231 310 283 286 292 291 312 352 334 319 333 313 338 342 13 122 47 30 17 8 3 5
185 180 171 171 170 168 173 177 179 183 185 181 174 187 183 164 150 169 169 162 162 161 161 160 170 175 178 187 191 193 188 191 189 188 192 189 184 186 186 186 197 217 255 248 177 187 225 291 220 221 251 262 295 254 304 304 284 291 343 340 335 306 320 313 351 347 3 68 49 25 11 4 5 5
182 174 174 168 169 175 176 179 182 182 184 177 182 173 163 161 167 164 164 162 162 164 170 170 183 190 189 190 196 197 200 200 193 196 201 198 193 206 210 208 198 207 232 257 239 221 191 246 212 178 247 200 260 301 281 276 296 342 348 336 324 314 313 348 2 344 359 86 57 18 8 8 4 351
177 176 174 166 174 180 180 181 180 178 175 181 172 165 166 164 163 164 164 169 171 170 169 180 188 195 196 192 197 203 199 190 196 203 200 200 201 206 217 218 225 229 244 251 254 231 202 232 268 223 192 229 253 261 272 272 301 294 304 314 312 306 319 10 351 341 353 83 68 16 19 359 336 336
179 175 165 166 177 183 179 174 172 173 179 172 167 169 167 164 164 168 173 172 168 174 183 187 191 195 196 196 199 197 193 201 192 187 211 210 212 216 223 230 237 245 243 251 248 244 215 219 240 255 232 199 214 248 216 265 323 275 300 346 323 307 323 353 348 352 342 50 106 45 26 328 331 330
167 164 164 171 177 171 165 159 167 177 183 175 168 169 168 170 172 172 170 173 174 184 182 184 190 196 191 195 202 198 190 180 195 194 198 187 219 205 212 235 259 251 247 248 249 247 235 218 231 234 253 261 220 247 246 345 282 284 324 320 272 295 344 358 342 338 347 1 99 19 314 313 323 344
161 159 160 166 168 172 171 169 170 162 148 155 167 175 177 175 176 175 178 178 178 178 179 184 190 188 194 193 187 196 188 202 209 191 192 186 208 192 199 199 236 255 256 252 250 246 240 243 232 177 215 249 261 200 190 184 162 339 304 293 293 50 289 325 337 340 346 348 62 301 333 334 341 352
138 138 139 139 132 125 137 146 150 158 170 169 164 171 179 177 175 175 167 163 173 178 177 178 174 183 180 188 197 195 184 198 207 189 178 185 198 196 183 180 230 238 257 271 272 269 251 249 244 213 207 211 229 206 194 125 111 244 272 286 300 316 308 340 325 332 337 345 3 359 306 323 334 339
112 122 140 151 153 155 158 166 173 172 174 185 178 172 177 172 168 168 169 172 176 176 170 181 180 187 185 199 204 203 205 204 191 174 168 176 171 183 169 189 205 220 244 271 290 300 282 264 237 224 201 162 168 156 119 45 319 225 232 290 350 332 316 317 341 324 330 5 2 351 342 311 313 334
144 156 160 166 166 167 168 173 178 177 180 176 178 187 183 176 173 176 179 176 173 170 175 176 174 187 185 198 191 187 194 208 199 194 171 182 171 158 183 197 228 234 231 248 268 272 289 317 23 88 88 108 117 141 142 131 212 275 270 284 141 335 294 309 340 329 358 22 357 355 346 331 319 333
157 161 163 168 175 176 174 176 178 168 165 172 166 196 204 199 184 182 183 183 172 172 175 176 179 182 183 196 193 187 187 180 197 193 203 174 173 184 189 196 227 234 225 238 262 268 287 315 28 76 47 26 35 314 256 179 133 295 11 325 258 270 296 326 355 336 6 358 32 12 336 322 328 323
168 169 168 174 179 176 176 179 172 175 174 166 173 181 189 204 196 185 191 178 171 177 178 182 185 182 182 183 181 178 177 173 179 185 191 185 183 198 193 202 211 223 206 219 241 254 230 217 116 103 101 75 55 5 319 303 10 154 94 286 287 262 284 346 332 324 13 2 6 31 358 325 314 317
172 177 176 178 180 178 181 179 178 179 176 178 178 183 184 192 199 197 182 158 172 177 183 178 188 183 180 184 177 174 163 161 187 185 185 192 189 188 192 210 213 213 199 242 241 276 334 340 110 119 113 78 84 310 265 303 320 292 154 188 267 257 254 348 10 15 337 341 341 6 329 295 313 309
174 180 182 184 183 183 182 182 177 177 180 176 180 182 178 192 197 192 175 176 181 178 180 186 189 183 182 178 176 188 180 183 171 163 178 168 170 183 184 188 197 199 199 249 305 297 205 124 130 145 121 134 125 260 310 312 0 288 221 151 215 262 83 46 24 20 318 325 308 306 332 332 310 305
177 180 185 185 183 183 183 184 181 182 170 168 181 186 181 181 187 188 189 193 187 186 185 187 188 186 183 182 177 171 177 174 177 176 167 166 158 158 165 162 175 224 143 295 329 340 68 134 159 157 145 146 163 202 192 201 269 260 278 237 200 212 293 199 162 252 286 322 316 322 289 249 265 310
188 185 183 180 181 183 185 181 184 180 170 166 178 186 182 184 187 186 188 191 194 195 190 189 184 181 192 186 180 178 174 175 176 171 173 172 175 164 165 172 174 196 114 282 273 286 102 189 193 182 180 188 196 190 164 174 237 282 302 291 224 181 198 175 125 332 325 253 241 24 327 344 344 325
178 178 182 177 170 175 176 173 164 157 169 179 182 177 176 186 191 194 188 184 188 188 193 189 186 184 190 190 185 179 188 190 172 172 170 169 170 168 168 151 159 159 161 217 217 243 251 216 218 215 186 148 132 81 36 16 336 304 309 290 322 252 187 225 184 146 198 231 51 313 325 315 303 333
181 181 174 174 174 174 167 165 165 161 159 172 184 184 181 184 193 186 185 185 188 188 186 187 186 183 187 189 186 181 184 188 183 179 173 167 172 182 170 151 189 204 169 203 212 221 240 271 48 114 191 102 79 88 227 203 249 275 268 285 304 319 2 25 105 148 166 162 61 10 337 340 19 358
180 182 176 175 170 170 170 168 168 172 182 182 181 184 181 178 179 184 189 191 193 187 190 183 179 179 184 183 182 180 183 187 183 179 176 176 170 174 189 197 201 195 192 207 227 245 282 329 90 124 78 102 139 139 238 232 216 250 286 302 299 318 305 316 15 11 349 161 177 198 194 209 52 344
185 183 180 175 175 176 176 172 173 174 174 179 184 189 184 180 182 186 184 188 189 191 190 182 177 178 180 180 177 178 182 184 178 175 178 181 178 176 181 194 199 213 212 212 249 282 292 321 282 166 163 197 180 121 199 211 261 230 225 256 323 355 295 313 335 340 331 300 263 248 249 218 226 249
185 188 182 181 180 177 171 170 169 171 174 178 183 188 188 189 190 178 184 186 188 186 185 185 179 183 177 174 167 180 190 180 174 178 172 173 178 181 182 181 189 198 213 197 158 279 311 317 312 158 185 188 176 167 188 180 226 253 277 274 309 314 268 282 0 349 346 337 324 257 248 256 258 281